Flag Weather past 2 weeks in Gander, Newfoundland and Labrador, Canada

Now
50 °F

Passing clouds.


Feels Like: 43 °F
Forecast: 33 / 47 °F
Wind: 21 mph from West

Location: Gander Int. Airport

Current Time: Nov 26, 2014 at 1:02:31 AM

Latest Report: Nov 25, 2014 at 11:30 PM


Visibility: 20 mi

Pressure: 29.60 "Hg

Humidity: 76%

Dew point: 43 °F

Location of GanderLocation

Historic Weather in Gander — Graph

°F

Gander temperature yesterday

Maximum temperature yesterday: 57 °F (at 11:30 AM)
Minimum temperature yesterday: 32 °F (at 12:21 AM)
Average temperature yesterday: 48 °F

Past Weeks' High & Low Weather Summary

 TemperatureHumidityPressure
High57 °F (Nov 25, 11:30 AM)100% (Nov 13, 11:30 PM)30.36 "Hg (Nov 13, 11:30 PM)
Low19 °F (Nov 22, 4:30 AM)32% (Nov 11, 2:30 PM)29.09 "Hg (Nov 15, 5:30 AM)
Average34 °F75%29.82 "Hg
* Reported Nov 10 11:30 PM — Nov 25 11:30 PM, Gander, Weather by CustomWeather, © 2014

Note: Actual official high and low records may vary slightly from our data, if they occured in-between our weather recording intervals... More about our weather records

Advertising

Gander weather history for previous 24 hours

 ConditionsComfort  
Time TempWeatherWind HumidityBarometerVisibility
11:30 PM
Nov 25
50 °FPassing clouds.21 mph76%29.60 "Hg20 mi
10:30 PM50 °FPassing clouds.17 mph82%29.58 "Hg20 mi
9:30 PM52 °FPassing clouds.20 mph77%29.57 "Hg20 mi
8:30 PM52 °FPassing clouds.23 mph82%29.58 "Hg20 mi
7:30 PM54 °FOvercast.26 mph77%29.57 "Hg20 mi
6:30 PM52 °FPassing clouds.23 mph88%29.56 "Hg20 mi
5:30 PM52 °FPassing clouds.20 mph88%29.57 "Hg20 mi
4:30 PM52 °FPassing clouds.17 mph88%29.56 "Hg20 mi
3:30 PM55 °FPartly sunny.16 mph77%29.54 "Hg20 mi
2:30 PM57 °FPartly sunny.21 mph77%29.54 "Hg20 mi
1:30 PM57 °FPartly sunny.24 mph82%29.55 "Hg20 mi
12:30 PM57 °FPartly sunny.22 mph82%29.56 "Hg20 mi
11:30 AM57 °FBroken clouds.23 mph82%29.56 "Hg20 mi
10:30 AM55 °FPartly sunny.20 mph94%29.59 "Hg20 mi
9:30 AM55 °FDrizzle. Mostly cloudy.21 mph94%29.59 "Hg12 mi
8:30 AM54 °FBroken clouds.24 mph94%29.57 "Hg15 mi
7:30 AM50 °FDrizzle. Partly sunny.22 mph100%29.59 "Hg8 mi
6:30 AM46 °FPassing clouds.28 mph93%29.64 "Hg8 mi
5:30 AM43 °FLight rain. Mostly cloudy.26 mph100%29.70 "Hg8 mi
5:19 AM43 °FLight rain. Mostly cloudy.30 mph93%29.71 "Hg10 mi
4:30 AM41 °FLight rain. Mostly cloudy.29 mph93%29.75 "Hg10 mi
3:30 AM37 °FLight rain. Mostly cloudy.29 mph100%29.83 "Hg10 mi
2:30 AM36 °FLow clouds.23 mph93%29.92 "Hg15 mi
1:30 AM34 °FLight rain. Mostly cloudy.24 mph93%30.00 "Hg8 mi
Weather by CustomWeather, © 2014

See weather overviewHow to use our weather pages